Location: Bacea
(45.9500°N, 22.6667°E)
Time: 22:57:49
(UTC+00:00)

Cosmos 1953 - Pass Details

Date: 06 June 2022
Orbit: 533 x 555 km, 82.5° (Epoch: 01 July)

Event Time Altitude Azimuth Distance (km) Brightness Sun altitude
Rises 20:56:25 0° 359° (N) 2,710 7.1 -18.2°
Reaches altitude 10° 20:58:46 10° 10° (N) 1,809 5.8 -18.4°
Maximum altitude 21:02:21 32° 74° (ENE) 941 3.4 -18.6°
Enters shadow 21:03:15 29° 101° (ESE) 1,014 3.4 -18.7°
